ONEWEB-0068 (45446 NORAD) Tracking and Keplerian Element Data

This shows tracking and keplerian element data for the satellite.

Feedback or suggestion? Click here.




ElementValue
Catalog45446
NameONEWEB-0068
Epoch Orbit3213
Epoch Day297.91667824
Epoch Year2020
RAAN71.7654
Inclination87.7963
Eccentricity0.0026415
Argument of Perigee242.0985
Mean Anonmoly129.7793
Mean Motion13.96451833
Decay Rate-0.00019232
L11 45446U 20020Y 20297.91667824 -.00019232 00000-0 -13949-1 0 9996
L22 45446 87.7963 71.7654 0026415 242.0985 129.7793 13.96451833 32133

Live tracking and technical data element details for ONEWEB-0068 (NORAD 45446). ONEWEB-0068 can be tracked NOW for your location showing map with azimuth and elevation plus other details from your city location.

Track the satellite on the map from your city or location and see movement details for azimuth, elevation, latitude, longitude, range, height, and movement on the map or in text.







IsCatalogInMostPopularTable: catalog: 45446, numindb: 57
Update: records affected: 1



GetName: 45446 ONEWEB-0068

Hit Count: updated at: Sat, 24 Oct 2020 22:38:04 GMT